Вернуться в каталог

COSMOS 1285 DEB

АктивенHEO
NORAD 13961·DEBRIS·🇷🇺 Russia

Запущен Aug 4, 1981 с Plesetsk Cosmodrome

Loading…

Ближайшие Пролёты (ближайшие 24 часа)

TLE

СвежийSource: Space-Track

Эпоха: Sep 10, 2026, 04:39 UTC

1 13961U 81071F   26253.19385913  .00000392  00000-0  00000+0 0  9997
2 13961  70.8466  73.2022 5483433 334.3905   6.3720  1.98119795323967

Отслеживайте COSMOS 1285 DEB в реальном времени с AllMySat

Download on the App Store